This demonstration page uses our WeatherBlox Daily Observations layout. Learn more.

Hourly Observations for October 21, 2015

Temp ( °F °C ) Dew Point ( °F °C ) Humidity (%) Winds ( mph kmh ) Pressure ( in mb ) Visibility ( mi km ) Precip ( " mm )
12:15 am 00:15 Clear 59 14.9 49 9.2 69 69 NNE 7 11 29.91 1013 10 16.0934 0 0
12:35 am 00:35 Partly Cloudy 61 16.3 49 9.6 65 65 N 7 11 29.88 1012 10 16.0934 0 0
12:55 am 00:55 Mostly Cloudy 63 17 49 9.5 62 62 W 3 6 29.91 1013 10 16.0934 0 0
1:15 am 01:15 Mostly Cloudy 61 16.1 49 9.6 66 66 Calm 29.91 1013 10 16.0934 0 0
1:35 am 01:35 Mostly Cloudy 62 16.8 49 9.6 63 63 S 8 13 29.91 1013 10 16.0934 0 0
1:55 am 01:55 Mostly Cloudy 65 18.6 48 9.1 54 54 SSW 7 11 29.94 1014 10 16.0934 0 0
2:15 am 02:15 Partly Cloudy 63 17.1 49 9.5 61 61 NNW 14 22 29.94 1014 10 16.0934 0 0
2:35 am 02:35 Partly Cloudy 64 17.8 51 10.5 63 63 N 9 15 29.94 1014 10 16.0934 0 0
2:55 am 02:55 Partly Cloudy 62 16.9 51 10.7 67 67 NNE 9 15 29.97 1015 10 16.0934 0 0
3:15 am 03:15 Partly Cloudy 62 16.5 51 10.5 68 68 NNE 12 19 29.97 1015 10 16.0934 0 0
3:35 am 03:35 Partly Cloudy 62 16.5 49 9.7 64 64 NNE 10 17 30 1016 10 16.0934 0 0
3:55 am 03:55 Partly Cloudy 61 16.3 48 9 62 62 NNE 12 19 30.03 1017 10 16.0934 0 0
4:15 am 04:15 Mostly Cloudy 61 16 48 8.7 62 62 N 8 13 30.06 1018 10 16.0934 0 0
4:35 am 04:35 Mostly Cloudy 59 15.2 48 8.7 65 65 N 6 9 30.06 1018 10 16.0934 0 0
4:55 am 04:55 Partly Cloudy 59 15.1 47 8.4 64 64 N 12 19 30.06 1018 10 16.0934 0 0
5:15 am 05:15 Partly Cloudy 59 15.1 47 8.2 64 64 NNE 15 24 30.06 1018 10 16.0934 0 0
5:35 am 05:35 Partly Cloudy 59 15 47 8.1 64 64 NNE 14 22 30.06 1018 10 16.0934 0 0
5:55 am 05:55 Partly Cloudy 59 14.9 47 8.1 64 64 NNE 15 24 30.06 1018 10 16.0934 0 0
6:15 am 06:15 Partly Cloudy 58 14.7 46 8 64 64 NNE 17 28 30.06 1018 10 16.0934 0 0
6:35 am 06:35 Partly Cloudy 58 14.3 46 8 66 66 NNE 16 26 30.06 1018 10 16.0934 0 0
6:55 am 06:55 Partly Cloudy 57 13.8 46 8 68 68 NNE 17 28 30.06 1018 10 16.0934 0 0
7:15 am 07:15 Clear 56 13.6 46 7.7 68 68 NNE 16 26 30.09 1019 10 16.0934 0 0
7:35 am 07:35 Clear 56 13.1 46 7.6 70 70 N 17 28 30.12 1020 10 16.0934 0 0
7:55 am 07:55 Sunny 55 12.7 46 7.7 72 72 N 16 26 30.12 1020 10 16.0934 0 0
8:15 am 08:15 Sunny 55 12.5 46 7.5 72 72 N 17 28 30.12 1020 10 16.0934 0 0
8:35 am 08:35 Partly Cloudy 55 12.5 46 8 74 74 N 12 19 30.15 1021 10 16.0934 0 0
8:55 am 08:55 Partly Cloudy 55 12.8 46 7.6 71 71 N 18 30 30.15 1021 10 16.0934 0 0
9:15 am 09:15 Sunny 55 12.9 46 7.5 70 70 N 16 26 30.15 1021 10 16.0934 0 0
9:35 am 09:35 Sunny 56 13.2 46 7.6 69 69 N 21 33 30.18 1022 10 16.0934 0 0
9:55 am 09:55 Sunny 56 13.6 46 7.7 68 68 N 21 33 30.18 1022 10 16.0934 0 0
10:15 am 10:15 Mostly Cloudy 57 13.8 46 7.7 67 67 N 17 28 30.21 1023 10 16.0934 0 0
10:35 am 10:35 Cloudy 58 14.5 46 7.6 64 64 N 20 31 30.18 1022 10 16.0934 0 0
10:55 am 10:55 Cloudy 58 14.7 46 7.5 62 62 NNE 17 28 30.18 1022 10 16.0934 0 0
11:15 am 11:15 Cloudy 59 14.9 46 7.5 61 61 N 17 28 30.18 1022 10 16.0934 0 0
11:35 am 11:35 Cloudy 59 15 46 7.6 61 61 NNE 15 24 30.18 1022 10 16.0934 0 0
11:55 am 11:55 Cloudy 58 14.7 46 7.6 63 63 N 13 20 30.18 1022 10 16.0934 0 0
12:15 pm 12:15 Cloudy 59 15 46 7.8 62 62 NNE 13 20 30.18 1022 10 16.0934 0 0
12:35 pm 12:35 Cloudy 60 15.7 46 8 60 60 N 13 20 30.18 1022 10 16.0934 0 0
12:55 pm 12:55 Cloudy 60 15.5 46 7.9 61 61 NNE 9 15 30.18 1022 10 16.0934 0 0
1:15 pm 13:15 Cloudy 59 15.2 46 7.6 61 61 NNE 12 19 30.18 1022 10 16.0934 0 0
1:35 pm 13:35 Mostly Cloudy 60 15.8 46 7.8 59 59 NNE 10 17 30.15 1021 10 16.0934 0 0
1:55 pm 13:55 Mostly Cloudy 60 15.7 46 8 60 60 NNE 10 17 30.15 1021 10 16.0934 0 0
2:15 pm 14:15 Mostly Cloudy 60 15.8 46 8 60 60 NNE 13 20 30.15 1021 10 16.0934 0 0
2:35 pm 14:35 Mostly Cloudy 60 15.6 46 7.9 60 60 NNE 12 19 30.15 1021 10 16.0934 0 0
2:55 pm 14:55 Mostly Cloudy with Rain 59 15.2 46 7.9 62 62 NNE 6 9 30.15 1021 10 16.0934 0 0
3:15 pm 15:15 Mostly Cloudy with Light Drizzle 59 15 47 8.2 64 64 N 7 11 30.15 1021 10 16.0934 0 0
3:35 pm 15:35 Mostly Cloudy with Light Rain 59 14.9 47 8.5 66 66 N 8 13 30.15 1021 10 16.0934 0 0
3:55 pm 15:55 Cloudy with Rain 58 14.3 49 9.2 72 72 NNE 7 11 30.18 1022 10 16.0934 0 0
4:15 pm 16:15 Cloudy with Drizzle 57 14.1 48 9 72 72 N 6 9 30.18 1022 10 16.0934 0 0
4:35 pm 16:35 Mostly Cloudy with Light Rain 57 13.7 49 9.3 75 75 Calm 30.21 1023 10 16.0934 0 0
4:55 pm 16:55 Mostly Cloudy with Light Drizzle 57 14 50 10 77 77 N 3 6 30.18 1022 10 16.0934 0 0
5:15 pm 17:15 Cloudy with Light Drizzle 58 14.2 49 9.6 74 74 NE 5 7 30.18 1022 10 16.0934 0 0
5:35 pm 17:35 Cloudy with Light Rain 57 14 50 9.9 77 77 NNE 3 6 30.18 1022 10 16.0934 0.01 0.254
5:55 pm 17:55 Mostly Cloudy with Light Drizzle 57 14 50 9.8 76 76 N 5 7 30.21 1023 10 16.0934 0.01 0.254
6:15 pm 18:15 Cloudy 57 13.7 49 9.7 77 77 N 3 6 30.21 1023 10 16.0934 0 0
6:35 pm 18:35 Cloudy 56 13.6 50 10 79 79 Calm 30.21 1023 10 16.0934 0 0
6:55 pm 18:55 Cloudy 56 13.5 50 10 80 80 Calm 30.21 1023 10 16.0934 0 0
7:15 pm 19:15 Cloudy 56 13.2 49 9.5 78 78 NNE 5 7 30.21 1023 10 16.0934 0 0
7:35 pm 19:35 Cloudy 55 12.7 49 9.5 81 81 NNE 6 9 30.18 1022 10 16.0934 0 0
7:55 pm 19:55 Cloudy 55 12.5 48 9.1 80 80 NNE 5 7 30.21 1023 10 16.0934 0 0
8:15 pm 20:15 Cloudy 54 12.2 49 9.6 84 84 N 3 6 30.21 1023 10 16.0934 0 0
8:35 pm 20:35 Cloudy 54 12 48 9.1 83 83 N 3 6 30.21 1023 10 16.0934 0 0
8:55 pm 20:55 Cloudy 53 11.8 48 8.7 81 81 NNE 5 7 30.21 1023 10 16.0934 0 0
9:15 pm 21:15 Cloudy 53 11.8 47 8.5 80 80 NNE 6 9 30.18 1022 10 16.0934 0 0
9:35 pm 21:35 Cloudy 54 12 47 8.1 77 77 NNE 7 11 30.18 1022 10 16.0934 0 0
9:55 pm 21:55 Cloudy 54 12 45 7.2 73 73 NNE 6 9 30.18 1022 10 16.0934 0 0
10:15 pm 22:15 Cloudy 53 11.4 45 7.2 76 76 Calm 30.24 1024 10 16.0934 0 0
10:35 pm 22:35 Cloudy 53 11.6 45 7.3 75 75 NNE 5 7 30.21 1023 10 16.0934 0 0
10:55 pm 22:55 Cloudy 53 11.5 45 7.3 76 76 NNE 5 7 30.21 1023 10 16.0934 0 0
11:15 pm 23:15 Cloudy 53 11.4 46 7.5 77 77 Calm 30.24 1024 10 16.0934 0 0
11:35 pm 23:35 Cloudy 52 11.2 46 7.5 78 78 Calm 30.24 1024 10 16.0934 0 0
11:55 pm 23:55 Cloudy 53 11.6 46 7.5 76 76 Calm 30.21 1023 10 16.0934 0 0

Powered by AerisWeather